User: anonymous   Login
Location: Caltech
(34.1382°N, 118.1253°W)
Time: 16:16:59
(UTC-07:00)
Language:

SEDSat Delta rocket - Orbit

View from above orbital plane
View from above orbital plane
View from above satellite
View from above satellite

Ground track
Ground track

The orbit data is extracted from the following two-line orbital elements,

1 25510U 98061C   15143.47643912  .00000619  00000-0  96691-4 0  9998
2 25510 031.4345 153.0405 0330385 221.8147 300.3755 14.36567962868532
Epoch (UTC): 23 May 2015 11:26:04
Eccentricity: 0.0330385
inclination: 31.4345°
perigee height: 534 km
apogee height: 1006 km
right ascension of ascending node: 153.0405°
argument of perigee: 221.8147°
revolutions per day: 14.36567962
mean anomaly at epoch: 300.3755°
orbit number at epoch: 86853

The dashed part of the orbit path shows where the satellite is in the earth's shadow,  

DLR